DateTimeUTC,F1_A11,F1_S11,BsB_S11,BsG_S11,BsR_S11,BbsB_S11,BbsG_S11,BbsR_S11,BaB_A11,BaG_A11,BaR_A11,Tu_S11,T_S11,Uu_S11,U_S11,P_S11,T1_A11
2021-10-12T03:00:00Z,00000200,21000000,,,,,,,0000.11,-000.16,-000.10,16.2,23.6,,00.0,0671.6,30.8
2021-10-12T03:01:00Z,00000200,21000000,,,,,,,-000.23,0000.25,0000.12,16.2,23.6,,00.0,0671.6,30.9
2021-10-12T03:02:00Z,00000200,21000000,,,,,,,0000.16,-000.04,-000.06,16.2,23.6,,00.0,0671.6,30.9
2021-10-12T03:03:00Z,00000200,61000000,,,,,,,0000.52,0000.44,0000.43,16.2,23.6,,00.0,0671.6,30.9
2021-10-12T03:04:00Z,00000200,41000000,0001.93,0001.26,0000.88,-000.36,0000.31,-000.14,0000.27,0000.35,0000.12,16.7,23.5,,00.0,0672.5,30.9
2021-10-12T03:05:00Z,00000200,01000000,0002.23,0001.23,0001.01,0000.22,0000.50,0000.26,0000.73,0000.44,0000.53,16.8,23.4,,00.0,0672.5,30.9
2021-10-12T03:06:00Z,00000200,01000000,0001.71,0001.17,0000.57,0000.33,0000.20,0000.02,0000.10,0000.14,0000.26,16.8,23.4,,00.0,0672.5,30.9
2021-10-12T03:07:00Z,00000200,01000000,0001.67,0001.20,0000.31,-000.27,0000.31,0000.04,0000.48,0000.34,0000.12,16.9,23.5,,00.0,0672.5,30.9
2021-10-12T03:08:00Z,00000200,01000000,0001.31,0000.80,0000.58,0000.46,0000.26,0000.05,0000.01,0000.22,0000.07,16.9,23.5,,00.0,0672.5,30.9
2021-10-12T03:09:00Z,00000200,01000000,0001.18,0000.91,0000.25,0000.46,0000.27,0000.07,0000.12,0000.08,-000.00,16.9,23.5,,00.0,0672.5,30.9
2021-10-12T03:10:00Z,00000200,01000000,0000.65,0000.30,0000.20,0000.44,0000.27,0000.06,-000.16,-000.39,-000.41,16.9,23.5,,00.0,0672.5,30.9
2021-10-12T03:11:00Z,00000200,01000000,0000.78,0000.23,0000.25,-000.04,0000.23,0000.30,-000.38,-000.00,-000.06,16.8,23.4,,00.0,0672.5,30.9
2021-10-12T03:12:00Z,00000200,01000000,0000.39,0000.09,0000.25,0000.42,0000.07,0000.17,0000.33,0000.25,0000.40,16.8,23.4,,00.0,0672.5,30.9
2021-10-12T03:13:00Z,00000200,01000000,-000.02,-000.36,-000.23,0000.06,0000.23,0000.12,0000.22,-000.02,-000.17,16.8,23.4,,00.0,0672.4,30.9
2021-10-12T03:14:00Z,00000200,01000000,0000.01,-000.04,0000.06,-000.48,0000.04,-000.16,0000.13,0000.26,0000.41,16.8,23.4,,00.0,0672.4,30.9
2021-10-12T03:15:00Z,00000200,01000000,-000.18,0000.18,-000.15,-000.36,0000.52,0000.30,0000.16,0000.03,-000.25,16.8,23.4,,00.0,0672.4,30.9
2021-10-12T03:16:00Z,00000200,01000000,0000.30,-000.40,0000.00,0000.12,0000.24,0000.01,0000.10,-000.20,0000.29,16.8,23.4,,00.0,0672.4,30.9
2021-10-12T03:17:00Z,00000200,01000000,-000.12,-000.12,-000.08,0000.36,0000.05,-000.12,-000.20,0000.06,-000.18,16.9,23.4,,00.0,0672.4,30.9
2021-10-12T03:18:00Z,00000200,01000000,-000.23,0000.17,-000.03,0000.38,0000.28,-000.03,0000.23,0000.40,0000.04,16.9,23.4,,00.0,0672.4,30.9
2021-10-12T03:19:00Z,00000200,01000000,-000.03,0000.14,-000.00,0000.34,0000.01,0000.11,-000.37,-000.48,-000.18,17.0,23.4,,00.0,0672.4,30.9
2021-10-12T03:20:00Z,00000200,01000000,0000.11,-000.12,0000.06,0000.21,0000.28,-000.19,0000.04,-000.11,0000.16,17.0,23.5,,00.0,0672.4,30.9
2021-10-12T03:21:00Z,00000200,01000000,0000.67,0000.07,0000.13,0000.09,0000.40,0000.05,-000.02,0000.30,-000.06,17.1,23.5,,00.0,0672.4,30.9
2021-10-12T03:22:00Z,00000200,01000000,-000.35,0000.25,0000.05,0000.18,-000.01,-000.06,0000.08,-000.14,-000.16,17.2,23.5,,00.0,0672.5,30.9
2021-10-12T03:23:00Z,00000200,01000000,-000.08,-000.05,0000.07,0000.25,-000.03,0000.13,-000.20,-000.02,0000.10,17.2,23.6,,00.0,0672.4,30.9
2021-10-12T03:24:00Z,00000200,01000000,-000.08,-000.25,0000.13,-000.24,-000.19,-000.00,-000.01,-000.23,-000.27,17.1,23.6,,00.0,0672.4,30.9
2021-10-12T03:25:00Z,00000200,01000000,0000.27,-000.05,0000.22,0000.17,0000.21,-000.10,-000.03,0000.14,-000.03,17.1,23.6,,00.0,0672.4,30.9
2021-10-12T03:26:00Z,00000200,01000000,0000.54,0000.24,-000.08,-000.16,0000.46,0000.10,0000.04,-000.18,-000.07,17.0,23.5,,00.0,0672.4,30.9
2021-10-12T03:27:00Z,00000200,01000000,0000.69,-000.19,0000.03,-000.05,0000.11,-000.12,0000.09,0000.20,0000.30,16.9,23.5,,00.0,0672.4,30.9
2021-10-12T03:28:00Z,00000200,01000000,0000.90,-000.35,-000.24,0000.36,-000.04,-000.05,0000.08,-000.46,-000.13,16.9,23.4,,00.0,0672.4,30.8
2021-10-12T03:29:00Z,00000200,01000000,-000.40,0000.41,0000.04,0000.72,0000.15,-000.13,-000.35,-000.30,-000.24,16.9,23.4,,00.0,0672.4,30.9
2021-10-12T03:30:00Z,00000200,01000000,0000.05,0000.25,0000.02,0000.04,0000.48,0000.09,-000.23,0000.01,0000.16,16.9,23.4,,00.0,0672.4,30.9
2021-10-12T03:31:00Z,00000200,01000000,0000.82,0000.59,0000.09,-000.41,-000.14,0000.24,-000.00,0000.31,-000.12,17.0,23.5,,00.0,0672.5,30.9
2021-10-12T03:32:00Z,00000200,01000000,0000.86,0000.24,-000.06,-000.12,0000.20,0000.06,-000.26,-000.26,0000.01,17.0,23.5,,00.0,0672.5,30.9
2021-10-12T03:33:00Z,00000200,01000000,0000.71,0000.30,0000.06,0000.15,0000.30,0000.05,0000.56,0000.56,0000.25,17.1,23.5,,00.0,0672.5,30.9
2021-10-12T03:34:00Z,00000200,01000000,0000.59,0000.01,-000.11,0000.23,0000.13,0000.09,-000.12,-000.07,-000.04,17.1,23.5,,00.0,0672.5,30.9
2021-10-12T03:35:00Z,00000200,01000000,0000.60,0000.34,-000.29,-000.45,0000.08,0000.42,0000.50,0000.40,0000.21,17.2,23.6,,00.0,0672.5,30.9
2021-10-12T03:36:00Z,00000200,01000000,0000.39,0000.23,-000.04,0000.42,-000.20,-000.02,-000.24,-000.10,0000.21,17.2,23.6,,00.0,0672.4,30.9
2021-10-12T03:37:00Z,00000200,01000000,0000.93,-000.26,0000.22,0000.01,0000.19,0000.01,-000.29,-000.41,-000.26,17.2,23.6,,00.0,0672.4,30.9
2021-10-12T03:38:00Z,00000200,01000000,0001.22,0000.06,0000.20,-000.16,0000.10,-000.08,-000.08,-000.26,-000.48,17.1,23.6,,00.0,0672.4,30.9
2021-10-12T03:39:00Z,00000200,01000000,0000.58,0000.08,0000.13,-000.00,0000.03,-000.02,-000.20,-000.64,-000.39,17.0,23.5,,00.0,0672.4,30.9
2021-10-12T03:40:00Z,00000200,01000000,0000.56,0000.27,0000.32,0000.13,0000.03,0000.00,-000.07,0000.46,0000.14,16.9,23.5,,00.0,0672.4,30.9
2021-10-12T03:41:00Z,00000200,01000000,0000.80,0000.48,0000.04,0000.57,0000.04,0000.05,-000.17,-000.49,-000.02,16.8,23.4,,00.0,0672.4,30.9
2021-10-12T03:42:00Z,00000200,01000000,0001.00,0000.23,0000.14,-000.06,0000.02,0000.36,-000.12,0000.04,-000.13,16.8,23.4,,00.0,0672.4,30.8
2021-10-12T03:43:00Z,00000200,01000000,0001.31,0000.79,0000.38,0000.01,0000.18,0000.14,0000.46,-000.03,0000.21,16.7,23.4,,00.0,0672.4,30.8
2021-10-12T03:44:00Z,00000200,01000000,0001.78,0000.71,0000.46,-000.02,0000.38,0000.21,-000.17,0000.55,0000.28,16.7,23.3,,00.0,0672.4,30.8
2021-10-12T03:45:00Z,00000200,01000000,0002.30,0001.25,0000.81,-000.51,0000.37,0000.28,0000.44,0000.17,0000.10,16.8,23.4,,00.0,0672.4,30.9
2021-10-12T03:46:00Z,00000200,01000000,0001.75,0000.79,0000.06,0000.26,0000.23,0000.29,-000.19,-000.05,-000.05,16.8,23.4,,00.0,0672.4,30.9
2021-10-12T03:47:00Z,00000200,01000000,0001.55,0000.65,0000.26,0000.03,0000.14,-000.13,0000.24,0000.28,0000.13,16.9,23.4,,00.0,0672.4,30.9
2021-10-12T03:48:00Z,00000200,01000000,0001.20,0000.52,0000.35,0000.22,0000.17,0000.17,0000.47,0000.19,0000.14,16.9,23.4,,00.0,0672.4,30.9
2021-10-12T03:49:00Z,00000200,01000000,0001.06,0000.63,0000.18,-000.16,0000.18,0000.07,0000.22,0000.15,0000.40,17.0,23.4,,00.0,0672.4,30.9
2021-10-12T03:50:00Z,00000200,01000000,0001.41,0000.56,0000.35,0000.19,0000.11,0000.00,0000.51,0000.62,0000.15,17.0,23.5,,00.0,0672.4,30.9
2021-10-12T03:51:00Z,00000200,01000000,0000.74,0000.76,0000.18,0000.07,0000.15,0000.09,0000.00,-000.08,0000.22,17.1,23.5,,00.0,0672.4,30.9
2021-10-12T03:52:00Z,00000200,01000000,0001.52,0000.93,0000.10,0000.21,0000.19,-000.27,-000.10,0000.10,-000.35,17.1,23.5,,00.0,0672.4,30.9
2021-10-12T03:53:00Z,00000200,01000000,0000.90,0000.86,0000.10,0000.16,0000.04,0000.22,0000.20,0000.16,0000.29,17.1,23.5,,00.0,0672.4,30.9
2021-10-12T03:54:00Z,00000200,01000000,0000.78,0000.59,0000.50,-000.42,0000.21,0000.09,0000.32,0000.28,-000.15,17.2,23.5,,00.0,0672.5,30.9
2021-10-12T03:55:00Z,00000200,01000000,0001.06,0000.66,0000.27,0000.59,-000.19,0000.28,0000.15,0000.06,0000.43,17.2,23.6,,00.0,0672.4,30.9
2021-10-12T03:56:00Z,00000200,01000000,0001.25,0000.68,0000.65,-000.51,-000.13,0000.26,0000.10,0000.12,-000.24,17.2,23.6,,00.0,0672.5,30.9
2021-10-12T03:57:00Z,00000200,41000000,,,,,,,0001.44,0001.06,0001.14,17.2,23.6,,00.0,0672.5,30.9
2021-10-12T03:58:00Z,00000200,61000000,,,,,,,-000.45,-000.13,-000.50,16.7,23.7,,00.0,0671.5,30.9
2021-10-12T03:59:00Z,00000200,21000000,,,,,,,-000.15,-000.55,0000.01,16.7,23.8,,00.0,0671.5,30.9
